Location: Unspecified
(0.0000°N, 0.0000°E)
Time: 23:50:20
(UTC+00:00)

STARLINK-31363 - Pass Details

Date: 02 May 2025
Orbit: 482 x 484 km, 43.0° (Epoch: 16 May)

Event Time Altitude Azimuth Distance (km) Brightness Sun altitude
Rises 18:48:59 0° 195° (SSW) 2,532 7.0 -12.5°
Reaches altitude 10° 18:52:01 10° 169° (SSE) 1,651 5.8 -13.2°
Enters shadow 18:53:06 13° 153° (SSE) 1,474 5.4 -13.5°
